Wetbulb
42.19 38.75 35.52 38.27 40.05 38.52 36.36 34.93 33.77 37.37 41.67 38.04 37.34 37.00 39.59 43.03 41.06 40.63 41.53 42.61 44.45 46.95 50.28 49.07 48.50 48.89 49.17 49.45 50.26 55.79 56.61 57.06 57.74 56.44 58.33 60.32 60.29 61.01 60.71 61.57 61.45 60.88 60.51 60.06
40.17 35.36 37.94 40.49 40.88 40.18 39.00 34.23 33.43 38.33 40.61 38.20 37.26 37.16 41.00 42.72 43.26 42.33 43.14 43.48 43.70 44.81 45.74 46.43 46.66 46.88 47.32 49.12 49.70 50.68 55.92 56.24 57.05 57.66 57.53 58.60 59.44 60.24 61.04 60.93 60.96 60.73 60.53 60.41
34.42 35.85 40.42 39.69 37.71 38.65 38.86 36.83 34.78 35.61 38.17 38.21 34.14 32.37 34.78 38.01 39.14 40.62 42.21 44.41 44.08 44.01 44.15 44.84 45.44 45.84 44.90 45.52 47.20 49.49 52.27 55.34 56.31 57.60 56.39 56.28 56.36 55.81 56.91 59.02 59.79 60.32 60.50 60.29
37.49 40.02 38.45 37.57 36.18 38.06 33.73 39.25 39.17 37.51 35.51 29.39 34.32 25.77 30.46 35.17 37.29 38.48 40.24 39.76 40.58 41.10 42.20 42.74 43.28 43.75 43.48 45.52 45.85 46.95 49.02 53.42 55.73 56.32 56.39 55.40 56.46 56.17 57.71 58.69 59.17 59.54 59.73 59.92
32.61 36.13 36.97 35.81 36.69 39.74 35.09 39.98 38.60 36.44 33.26 29.26 27.44 28.09 28.71 32.20 33.30 36.86 38.99 38.97 39.16 40.47 41.44 42.13 41.67 43.01 41.33 42.19 42.61 46.13 48.45 49.60 55.36 55.38 56.37 55.77 55.41 56.64 56.85 55.90 56.06 57.23 57.85 59.06
35.12 38.65 37.73 37.13 39.34 40.73 41.33 38.09 36.80 34.39 32.00 25.64 28.78 28.01 24.69 30.46 32.38 33.50 35.90 37.99 39.53 41.27 39.78 40.05 40.98 42.02 41.63 41.93 42.27 43.32 44.17 44.51 49.28 54.41 54.89 55.09 54.90 55.17 55.21 55.05 54.72 55.62 56.79 57.57
33.72 34.91 36.75 39.41 36.17 38.22 39.30 34.58 21.61 20.34 23.97 21.41 27.45 26.68 28.33 34.81 36.10 35.61 37.18 38.94 38.62 40.33 39.45 40.02 41.16 42.05 42.76 42.76 43.18 44.17 44.30 44.02 44.54 44.80 46.04 50.93 54.19 54.60 54.89 55.26 55.48 55.23 55.42 56.29
26.40 24.26 34.41 37.95 36.39 33.86 35.67 34.31 23.00 14.91 19.24 21.04 28.66 25.04 28.76 35.95 38.76 39.18 38.79 38.52 39.12 38.42 39.19 39.75 41.11 41.62 40.99 40.87 41.23 42.45 43.36 43.33 43.25 43.23 43.14 43.74 44.55 48.50 53.63 55.68 56.27 56.92 56.73 57.35
25.77 25.95 33.82 35.81 38.15 38.06 33.01 32.96 33.70 25.90 23.43 20.33 24.17 27.68 33.34 36.42 37.37 37.03 36.70 38.47 39.02 37.24 38.65 40.41 40.54 39.30 38.68 38.75 39.00 39.74 40.32 40.95 41.18 40.64 40.87 41.33 42.04 42.76 43.47 44.85 48.12 53.68 57.32 58.57
31.21 25.59 32.06 35.16 37.24 37.28 35.51 36.85 30.31 31.38 18.13 16.21 22.15 24.43 27.16 32.60 34.55 35.95 35.85 37.61 35.22 37.84 40.19 39.91 38.38 37.77 37.48 37.27 37.41 37.66 37.92 38.03 38.13 38.15 38.57 40.23 40.76 41.76 42.29 43.36 44.00 45.35 47.31 50.29
33.57 30.24 29.77 34.83 32.42 31.46 34.46 32.68 32.22 31.02 26.78 20.12 16.29 21.90 30.50 33.51 34.66 35.03 35.38 36.19 36.08 39.16 39.80 37.97 36.83 36.46 36.21 36.02 35.69 35.40 35.54 35.95 36.31 37.04 37.60 38.79 40.37 40.89 41.53 42.14 43.02 44.15 45.77 47.23
35.11 30.99 23.72 29.16 33.43 36.64 36.52 33.50 33.17 26.18 22.25 25.72 24.72 26.02 33.04 33.02 34.83 35.82 35.23 35.72 36.42 39.43 38.85 36.24 35.87 35.50 35.06 34.74 34.34 33.57 33.99 34.50 35.43 36.15 37.06 38.49 38.34 38.07 38.45 39.39 40.78 42.33 42.93 44.90
36.06 30.90 20.92 21.89 28.44 31.36 31.97 34.13 35.86 34.96 30.41 26.43 23.33 26.07 34.80 34.15 35.33 37.42 36.95 37.36 38.77 37.99 35.51 35.57 35.50 34.63 34.03 33.77 33.46 32.42 32.47 32.90 34.34 35.22 35.56 35.38 35.35 35.66 35.94 36.87 38.01 38.97 39.82 40.77
39.87 30.99 27.26 23.44 24.92 29.33 29.63 31.52 34.24 33.80 29.41 28.69 29.26 30.70 33.57 33.39 34.18 37.09 37.71 38.00 37.89 36.87 36.28 35.51 34.74 33.98 33.29 33.33 32.12 31.28 31.39 32.14 33.05 33.35 33.38 32.87 33.44 34.79 35.64 36.23 36.46 37.28 38.38 39.07
37.07 25.98 28.54 30.08 29.43 30.59 29.95 30.56 32.42 31.63 32.89 28.68 31.00 31.06 35.33 35.08 35.98 36.69 37.21 38.16 38.31 37.89 36.42 35.50 34.84 33.54 32.54 32.38 31.43 30.82 30.69 31.55 31.59 31.27 31.44 31.66 32.92 34.18 35.22 35.52 35.86 36.58 37.42 38.28
34.96 25.92 27.35 25.65 30.74 30.02 26.87 30.12 30.94 32.88 33.76 33.12 33.55 32.35 39.29 37.27 36.52 35.67 36.86 37.02 38.05 38.52 37.23 35.53 34.57 33.16 32.06 31.46 30.59 30.04 29.79 30.50 30.68 29.99 29.86 30.91 31.58 33.12 33.82 34.43 34.97 35.51 36.14 37.36
31.03 28.21 27.86 24.57 29.00 26.67 24.89 29.02 30.93 31.81 34.23 33.95 29.65 35.00 39.41 37.36 37.36 37.11 38.32 37.47 38.54 39.31 37.26 34.89 33.28 32.01 30.98 29.95 29.31 28.11 29.00 30.11 29.32 29.46 31.11 31.49 30.51 31.69 32.78 33.90 34.29 34.39 34.92 36.17
32.39 29.51 30.28 25.40 19.44 19.00 28.67 34.48 34.52 32.55 34.10 35.61 36.12 37.27 38.72 38.95 39.00 38.38 38.43 39.88 39.38 37.86 36.49 33.66 31.30 29.71 29.25 28.28 27.44 27.82 29.04 29.24 29.17 29.01 28.49 29.07 29.99 30.53 31.63 32.53 33.13 33.82 34.58 34.78
35.01 32.23 27.82 24.74 23.72 25.94 27.48 29.98 29.96 29.56 30.47 36.19 35.30 37.54 39.23 36.91 35.04 36.27 38.71 38.05 38.52 37.71 34.14 31.51 30.11 28.99 27.23 26.30 26.41 27.48 27.97 27.38 26.41 26.24 26.06 26.00 26.30 27.68 29.65 30.96 31.99 32.77 33.13 33.55
32.92 34.00 29.49 26.35 21.87 19.38 28.48 34.31 32.30 33.51 27.02 37.26 37.10 37.30 37.76 35.32 31.68 37.40 37.55 35.24 32.66 31.42 29.87 28.49 28.12 27.38 26.19 25.22 25.77 26.41 25.88 23.83 22.96 23.73 24.35 24.39 25.17 25.52 26.32 28.25 30.45 32.50 32.86 32.86
27.19 29.51 26.63 26.98 24.84 23.49 30.88 29.73 34.01 26.15 28.59 36.48 36.00 37.41 37.77 34.57 38.79 37.49 32.38 29.24 29.45 28.62 27.30 26.35 25.89 24.76 23.81 23.93 24.72 24.20 23.28 21.41 21.78 22.17 21.99 22.83 23.38 23.66 24.81 26.89 28.87 30.69 32.46 32.72
23.66 23.48 24.77 27.06 23.82 21.27 31.88 30.44 29.61 34.36 32.77 32.78 32.36 33.46 33.24 34.94 31.35 29.95 29.57 27.70 26.95 25.62 25.48 25.31 24.46 22.79 21.31 21.86 22.07 21.36 20.05 20.30 19.51 18.84 19.19 19.87 20.88 21.95 24.37 23.20 25.56 28.54 30.51 31.15
23.82 30.08 25.88 28.99 28.77 35.07 34.74 35.86 38.77 35.71 34.73 33.72 32.97 33.24 32.28 30.74 29.26 27.77 25.76 25.54 25.15 24.10 23.93 23.45 21.99 20.13 18.12 18.32 18.29 17.39 17.22 16.95 15.73 14.53 15.61 17.21 19.13 21.08 21.05 20.99 22.30 26.37 29.12 29.55
28.07 30.69 27.63 28.63 32.47 31.66 32.35 35.15 34.23 34.06 33.35 32.45 32.62 33.04 31.45 29.99 27.87 26.25 25.71 24.82 23.60 21.61 20.23 19.42 18.64 17.28 15.25 14.72 15.26 13.78 14.41 12.86 10.19 11.17 13.25 15.52 16.63 15.95 18.00 19.64 21.65 25.64 26.37 27.08
27.70 29.84 28.32 27.17 31.45 29.45 31.02 31.28 32.23 30.83 30.96 30.91 29.97 30.35 30.92 29.22 27.24 26.19 23.99 21.97 20.27 18.99 17.69 16.39 15.28 14.05 12.31 12.12 11.47 9.79 9.29 7.35 8.19 10.44 12.08 12.96 13.61 13.48 14.73 16.95 19.87 23.15 23.63 26.44
29.20 29.40 28.21 27.30 33.23 34.10 33.14 32.90 32.15 33.14 33.85 31.49 28.39 25.84 26.82 28.51 25.75 23.58 20.99 19.86 18.09 15.31 13.84 12.29 10.69 9.41 8.21 7.40 6.79 4.78 0.38 0.70 2.59 7.26 9.10 9.38 10.45 11.02 13.11 14.36 15.33 21.23 24.14 25.96
MSLP
1019.78 1020.00 1019.60 1019.97 1020.36 1020.39 1020.71 1021.13 1021.08 1020.75 1020.24 1020.09 1019.63 1019.25 1018.88 1018.06 1018.09 1018.13 1017.70 1017.43 1016.90 1016.16 1015.25 1015.16 1015.05 1015.15 1015.19 1015.16 1015.27 1015.15 1015.48 1015.40 1016.04 1016.70 1017.17 1017.48 1017.38 1017.53 1017.73 1017.70 1017.96 1018.32 1018.55 1018.87
1020.51 1020.16 1020.15 1020.33 1020.61 1020.79 1021.24 1021.65 1021.67 1021.17 1020.60 1020.68 1020.10 1019.37 1018.39 1017.58 1017.12 1017.15 1016.88 1016.40 1015.96 1015.53 1014.88 1014.81 1014.77 1014.61 1014.62 1014.59 1014.66 1014.72 1014.71 1014.95 1015.29 1015.59 1015.99 1016.44 1016.74 1016.84 1016.89 1017.07 1017.23 1017.34 1017.57 1017.81
1020.61 1020.35 1020.30 1020.73 1021.06 1021.32 1021.39 1021.57 1021.92 1021.83 1021.35 1021.05 1020.55 1018.93 1017.84 1016.73 1016.45 1016.17 1015.99 1015.36 1015.26 1015.11 1014.84 1014.50 1014.33 1014.11 1014.24 1014.40 1014.38 1014.28 1014.20 1014.39 1014.69 1014.95 1015.57 1016.11 1016.43 1016.56 1016.65 1016.46 1016.45 1016.33 1016.77 1017.11
1020.60 1020.24 1020.47 1020.91 1021.16 1021.61 1021.60 1021.52 1021.81 1022.09 1022.37 1022.03 1021.46 1019.86 1018.25 1017.19 1016.50 1015.93 1015.24 1015.09 1014.90 1014.97 1014.74 1014.52 1014.13 1013.90 1014.28 1014.04 1014.01 1013.88 1013.84 1013.94 1014.13 1014.60 1015.05 1015.37 1015.52 1015.80 1015.35 1015.40 1015.67 1015.89 1016.12 1016.36
1020.37 1020.36 1020.58 1020.79 1020.88 1021.40 1021.39 1021.28 1021.78 1022.16 1022.56 1022.61 1022.18 1022.00 1018.37 1017.73 1017.05 1015.89 1014.60 1014.77 1014.69 1014.69 1014.68 1014.32 1014.09 1014.05 1014.33 1014.28 1014.01 1013.92 1013.71 1013.86 1014.00 1014.29 1014.56 1015.03 1015.29 1015.19 1015.04 1015.33 1015.45 1015.57 1015.75 1015.80
1020.45 1020.33 1020.18 1020.19 1020.44 1020.74 1020.89 1021.63 1022.08 1022.43 1023.05 1022.75 1021.80 1021.92 1018.84 1017.67 1016.35 1015.71 1015.12 1015.03 1014.59 1014.59 1014.65 1014.59 1014.45 1014.41 1014.76 1014.57 1014.53 1014.57 1014.45 1014.44 1014.37 1014.40 1014.60 1014.85 1015.07 1015.18 1015.26 1015.09 1015.22 1015.21 1015.24 1015.34
1020.74 1020.49 1020.18 1020.00 1020.55 1020.96 1021.20 1021.80 1022.76 1023.37 1023.60 1022.51 1021.82 1021.68 1017.69 1016.64 1015.57 1015.66 1015.33 1014.96 1014.84 1014.94 1014.96 1015.15 1015.49 1015.47 1015.47 1015.41 1015.31 1015.16 1014.99 1015.05 1015.03 1015.01 1015.03 1015.06 1015.05 1015.12 1015.16 1014.97 1014.97 1014.96 1014.93 1014.86
1020.67 1020.59 1020.00 1019.70 1019.69 1020.25 1020.85 1021.38 1021.83 1022.63 1023.26 1022.61 1022.07 1019.96 1016.77 1015.72 1014.93 1014.73 1014.79 1014.82 1014.75 1015.09 1015.39 1015.64 1016.07 1016.37 1016.37 1016.31 1016.23 1016.08 1015.91 1015.92 1015.84 1015.64 1015.59 1015.44 1015.30 1015.21 1015.09 1014.81 1014.57 1014.42 1014.27 1014.08
1020.17 1019.92 1018.96 1018.92 1019.06 1019.58 1020.73 1020.75 1021.24 1022.13 1023.28 1023.04 1021.09 1019.13 1016.83 1015.22 1014.52 1014.26 1014.57 1014.59 1014.79 1015.28 1015.79 1016.20 1016.48 1016.76 1016.89 1016.88 1016.94 1016.85 1016.66 1016.58 1016.50 1016.36 1016.10 1015.85 1015.85 1015.72 1015.47 1015.10 1014.77 1014.53 1014.10 1013.69
1019.35 1019.57 1019.04 1018.93 1019.29 1019.43 1019.56 1019.81 1021.09 1021.59 1022.61 1022.46 1020.11 1018.91 1016.79 1015.39 1014.65 1014.54 1014.67 1014.97 1015.28 1015.70 1016.27 1016.73 1016.89 1017.10 1017.26 1017.32 1017.37 1017.32 1017.27 1017.25 1017.17 1016.93 1016.76 1016.54 1016.30 1015.92 1015.56 1015.22 1014.93 1014.63 1014.24 1013.89
1018.96 1019.14 1019.75 1019.43 1018.93 1018.58 1019.26 1019.40 1019.68 1020.19 1020.83 1020.62 1019.66 1017.38 1015.61 1015.01 1014.98 1015.07 1014.86 1014.87 1015.36 1016.00 1016.42 1016.80 1017.08 1017.31 1017.60 1017.70 1017.70 1017.80 1017.80 1017.78 1017.68 1017.48 1017.16 1016.76 1016.35 1016.05 1015.73 1015.49 1015.26 1014.88 1014.52 1014.08
1018.51 1018.97 1019.47 1019.01 1018.49 1018.28 1018.37 1018.34 1018.88 1019.10 1019.77 1019.75 1019.01 1015.59 1014.99 1014.91 1014.95 1014.91 1014.87 1014.95 1015.58 1015.84 1016.24 1016.96 1017.38 1017.71 1017.95 1018.14 1018.25 1018.28 1018.30 1018.24 1018.20 1017.94 1017.55 1017.08 1016.60 1016.32 1015.97 1015.81 1015.62 1015.27 1014.77 1014.33
1017.86 1018.49 1019.33 1019.17 1018.83 1018.50 1018.07 1017.88 1017.84 1018.19 1018.76 1018.32 1018.07 1014.83 1014.38 1014.29 1014.81 1014.89 1014.80 1014.98 1015.22 1016.15 1016.67 1017.13 1017.46 1017.71 1017.96 1018.24 1018.52 1018.54 1018.52 1018.44 1018.50 1018.15 1017.87 1017.47 1017.15 1017.08 1016.64 1016.16 1015.89 1015.56 1015.17 1014.64
1017.62 1018.05 1018.02 1017.54 1017.27 1017.06 1017.59 1017.09 1017.17 1017.74 1018.06 1016.61 1016.58 1014.21 1014.29 1014.49 1014.80 1014.79 1014.78 1015.02 1015.52 1015.98 1016.34 1016.90 1017.39 1017.70 1018.02 1018.49 1018.88 1018.83 1018.86 1018.84 1018.65 1018.45 1018.24 1017.85 1017.67 1017.46 1016.96 1016.38 1016.12 1015.87 1015.54 1015.00
1017.82 1017.98 1018.07 1017.53 1017.39 1017.05 1016.67 1016.53 1016.68 1017.12 1016.23 1016.32 1013.91 1014.56 1012.33 1013.79 1014.26 1014.47 1014.54 1015.01 1015.56 1015.90 1016.27 1016.60 1017.17 1017.69 1018.16 1018.39 1018.69 1018.86 1019.13 1019.17 1018.85 1018.35 1018.28 1018.35 1018.12 1017.91 1017.37 1016.96 1016.64 1016.30 1015.77 1015.16
1017.54 1017.68 1017.98 1017.57 1017.32 1017.12 1017.03 1016.67 1016.37 1015.74 1014.77 1015.16 1014.22 1013.64 1010.59 1012.83 1013.42 1013.88 1014.19 1014.57 1015.05 1015.10 1015.30 1015.94 1016.82 1017.72 1018.18 1018.50 1019.00 1019.29 1019.52 1019.41 1019.19 1018.98 1018.77 1018.58 1018.25 1018.13 1017.93 1017.58 1017.12 1016.66 1015.99 1015.27
1017.18 1017.36 1017.77 1017.01 1016.58 1016.89 1016.77 1015.52 1014.80 1014.69 1014.48 1013.67 1013.57 1011.07 1010.15 1011.95 1012.49 1012.58 1012.94 1013.58 1013.94 1014.07 1014.68 1015.64 1016.53 1017.54 1018.29 1018.79 1019.28 1019.48 1019.43 1019.36 1019.44 1019.42 1019.24 1018.68 1018.51 1018.34 1018.09 1017.73 1017.28 1016.81 1016.16 1015.63
1016.38 1017.02 1017.07 1016.48 1016.56 1015.39 1013.65 1013.04 1013.56 1013.60 1012.62 1012.40 1012.28 1011.39 1010.12 1010.35 1011.10 1011.75 1012.15 1012.49 1012.75 1013.60 1014.37 1015.34 1016.52 1017.60 1018.41 1018.97 1019.27 1019.38 1019.51 1019.57 1019.73 1019.80 1019.46 1019.09 1018.70 1018.47 1018.12 1017.70 1017.29 1016.78 1016.26 1015.79
1015.91 1016.24 1016.05 1015.57 1014.80 1014.04 1013.31 1012.36 1011.99 1012.03 1011.25 1010.63 1011.53 1010.34 1008.68 1010.52 1011.32 1011.37 1011.09 1011.45 1012.03 1012.65 1013.72 1015.08 1016.37 1017.56 1018.53 1019.03 1019.30 1019.49 1019.72 1020.14 1020.21 1019.95 1019.77 1019.51 1019.16 1018.75 1018.36 1017.92 1017.34 1016.89 1016.39 1015.78
1015.31 1015.29 1015.62 1015.12 1014.15 1013.25 1011.84 1010.24 1010.49 1011.29 1011.10 1009.43 1009.72 1009.41 1009.25 1010.93 1011.60 1009.55 1010.16 1011.31 1012.36 1013.29 1014.26 1015.62 1016.88 1017.73 1018.54 1019.15 1019.47 1019.85 1020.20 1020.38 1020.36 1020.25 1020.04 1019.80 1019.47 1018.95 1018.49 1017.96 1017.29 1016.64 1016.16 1015.67
1015.00 1014.44 1013.89 1013.54 1012.54 1011.93 1010.37 1010.26 1010.48 1011.02 1009.62 1007.68 1009.05 1008.75 1008.50 1010.37 1009.13 1009.49 1010.85 1012.30 1013.33 1014.31 1015.23 1016.37 1017.34 1018.16 1018.96 1019.46 1019.87 1020.18 1020.32 1020.42 1020.46 1020.35 1020.19 1019.85 1019.63 1019.29 1018.74 1018.09 1017.30 1016.55 1015.76 1015.28
1013.32 1013.48 1012.95 1012.57 1012.02 1010.91 1009.69 1010.65 1009.79 1007.89 1008.18 1008.19 1008.29 1008.25 1008.89 1009.24 1010.23 1011.20 1012.00 1013.29 1014.24 1015.29 1016.23 1016.98 1017.90 1018.83 1019.52 1020.00 1020.19 1020.38 1020.43 1020.70 1020.79 1020.74 1020.51 1020.15 1019.75 1019.32 1018.72 1018.14 1017.30 1016.56 1015.83 1015.12
1012.56 1010.98 1010.80 1010.66 1009.39 1008.21 1008.24 1008.64 1008.60 1008.02 1007.80 1007.63 1007.89 1008.12 1009.01 1010.00 1011.12 1012.40 1013.53 1014.47 1015.32 1016.41 1017.30 1017.91 1018.51 1019.29 1020.12 1020.38 1020.73 1020.84 1021.10 1021.31 1021.41 1021.18 1020.73 1020.23 1019.64 1019.08 1018.79 1018.12 1017.36 1016.59 1015.83 1015.25
1011.43 1010.52 1010.52 1010.20 1008.21 1008.27 1007.99 1008.23 1007.85 1007.44 1007.47 1007.57 1008.21 1008.81 1008.62 1010.23 1011.55 1012.92 1014.15 1015.24 1016.37 1017.43 1018.40 1018.76 1019.36 1019.93 1020.61 1021.12 1021.26 1021.55 1021.72 1021.90 1021.88 1021.49 1020.91 1020.55 1019.75 1019.11 1018.71 1018.23 1017.61 1016.80 1015.98 1015.24
1010.70 1010.42 1009.49 1009.13 1007.83 1008.44 1008.18 1007.63 1007.83 1007.90 1008.21 1008.57 1008.86 1009.51 1009.31 1009.78 1012.43 1013.41 1014.47 1015.92 1017.23 1018.29 1019.15 1019.64 1020.11 1020.80 1021.43 1021.74 1021.96 1022.19 1022.21 1022.35 1022.10 1021.60 1021.17 1020.76 1020.05 1019.60 1018.93 1018.31 1017.50 1016.81 1016.21 1015.65
1009.62 1009.18 1009.40 1008.05 1007.36 1007.62 1007.13 1007.25 1007.62 1008.52 1008.93 1009.39 1009.99 1010.27 1010.50 1010.48 1011.96 1014.40 1016.55 1016.88 1017.88 1018.87 1019.72 1020.42 1021.02 1021.56 1022.22 1022.44 1022.62 1022.72 1022.75 1022.61 1022.22 1021.70 1021.38 1020.87 1020.13 1019.85 1019.35 1018.49 1017.20 1016.83 1016.13 1015.50
Wind_Speed
1 3 8 7 5 3 4 1 3 3 4 3 7 9 11 12 6 10 11 9 12 15 14 9 8 9 8 8 8 9 8 10 8 4 6 7 10 8 7 9 10 10 11 12
2 9 4 2 3 2 3 1 3 6 3 2 8 16 18 17 16 11 13 14 13 9 9 9 9 8 7 9 9 7 10 8 10 8 5 5 5 7 7 6 9 12 13 13
5 3 9 4 3 8 10 15 4 8 6 4 7 10 11 7 4 6 10 16 9 11 11 9 9 9 5 7 8 8 8 7 8 10 3 3 2 0 2 6 8 11 12 12
5 4 5 5 4 6 6 6 5 4 5 4 5 11 6 7 7 5 10 8 9 9 8 9 9 9 5 7 5 6 7 7 7 7 8 8 9 9 9 8 6 7 10 12
6 5 8 5 6 7 5 6 7 5 4 5 3 5 6 4 6 12 10 7 8 8 7 9 8 5 4 4 4 3 2 3 4 6 7 6 7 6 4 2 5 6 6 10
4 2 5 8 4 10 4 3 2 2 3 8 8 8 4 5 6 4 4 6 5 5 6 7 6 7 5 5 7 6 7 7 6 2 4 6 7 6 4 5 4 4 5 6
3 5 0 3 5 1 5 5 0 2 3 8 0 4 5 9 8 7 8 10 6 4 6 7 7 7 7 8 8 6 7 8 8 7 6 3 4 5 7 6 4 5 4 5
7 4 11 6 7 7 11 8 7 9 6 5 1 9 8 6 8 9 7 8 6 4 4 6 6 6 6 7 7 7 8 7 8 8 8 6 6 3 4 5 4 5 5 7
6 6 1 5 5 9 4 12 5 5 1 2 5 8 9 9 11 6 4 5 5 6 5 6 6 5 5 6 7 6 7 6 7 7 6 7 6 6 5 6 5 5 6 6
5 2 4 7 3 3 6 7 5 3 3 6 5 6 8 8 8 7 4 6 4 6 7 5 4 4 4 5 5 7 6 6 6 7 6 5 5 6 6 5 6 7 7 7
6 3 1 7 8 16 8 7 4 5 6 5 2 7 8 9 5 8 9 7 8 7 7 5 3 4 5 5 6 6 7 6 6 6 6 6 5 6 6 6 6 7 9 9
8 3 4 9 2 2 13 6 7 5 5 4 3 14 1 4 5 5 0 2 5 7 8 5 4 3 4 5 5 5 5 5 5 5 5 5 6 7 8 8 9 10 10 10
10 5 2 7 5 3 6 15 12 12 2 13 8 12 5 6 5 4 5 7 9 7 5 5 4 3 3 4 5 5 6 6 6 6 6 7 8 9 9 9 10 11 11 11
14 5 8 11 5 6 6 8 20 15 12 19 15 26 13 2 6 6 5 5 6 6 8 6 4 2 3 3 3 5 5 5 5 6 7 8 9 9 10 10 11 12 13 13
10 6 7 12 3 3 5 9 15 18 26 19 28 21 28 11 9 9 6 5 6 8 8 8 5 4 3 2 3 4 5 5 5 6 8 8 8 8 11 12 12 12 12 11
5 8 6 10 12 11 3 4 10 20 26 19 27 24 32 6 8 9 9 8 10 12 12 8 7 6 3 3 4 4 4 5 5 6 5 6 7 10 11 12 11 12 12 11
6 7 6 17 10 5 8 19 21 14 17 18 20 31 29 15 14 16 16 11 14 14 10 10 10 7 5 3 1 2 3 4 5 5 6 6 6 8 8 9 12 13 13 13
5 6 8 11 3 17 11 13 19 23 25 19 18 22 25 20 13 11 13 16 17 8 9 9 8 7 6 4 2 2 3 3 3 3 5 6 7 7 7 8 8 9 8 9
13 10 6 6 8 13 8 8 12 13 24 28 19 27 34 5 4 8 15 12 13 11 6 7 7 6 6 5 3 2 3 3 3 5 5 7 7 7 8 8 7 8 7 7
11 11 10 10 13 16 13 25 5 6 12 20 25 27 29 9 7 21 9 8 7 8 9 11 9 7 7 4 3 3 3 2 4 6 6 7 7 8 8 8 9 6 6 7
6 8 15 13 12 8 11 3 7 13 13 19 13 23 27 13 21 7 6 6 7 7 11 8 8 7 6 4 3 3 3 4 5 7 8 7 7 8 8 9 9 10 8 7
10 7 6 8 11 20 8 4 15 13 5 5 5 9 8 10 4 4 7 10 12 12 10 8 9 7 5 4 2 3 3 3 4 6 7 6 6 6 7 9 8 10 10 9
6 12 8 10 8 7 8 10 20 8 8 9 7 7 7 7 6 6 6 9 10 9 7 6 8 8 5 4 4 3 4 6 7 6 6 6 6 6 7 8 8 7 8 8
5 4 5 3 15 9 9 13 8 9 8 3 1 6 10 6 9 8 8 9 8 7 6 4 6 6 5 4 5 4 4 5 4 5 5 6 6 7 6 6 6 6 7 7
6 6 7 7 13 3 10 11 6 2 2 2 2 5 7 12 7 9 9 10 8 7 5 4 5 4 3 3 3 3 5 3 4 4 4 5 5 6 7 6 6 7 7 8
8 10 6 13 12 11 10 6 9 8 9 8 7 4 3 7 16 11 5 7 7 7 4 5 4 4 3 3 3 2 2 1 3 4 5 5 5 6 6 7 8 9 13 16
Wind_Direction
240 181 199 193 194 138 101 267 265 287 282 295 260 274 265 273 274 263 270 252 258 259 258 257 248 238 245 238 226 219 201 209 186 170 190 213 218 215 217 219 218 207 208 208
122 235 219 91 151 168 146 202 286 282 272 249 293 286 281 267 260 235 251 259 250 256 269 258 258 262 234 239 226 217 216 190 197 197 194 195 198 227 222 212 213 211 212 211
166 225 195 164 141 218 233 245 221 253 320 279 315 273 252 280 255 246 243 250 254 246 261 272 266 257 264 250 244 229 221 210 201 197 145 128 92 20 192 221 221 223 218 216
218 238 143 143 170 162 237 190 193 264 332 261 44 292 260 267 284 278 273 254 253 265 265 264 272 277 266 266 270 248 238 217 209 178 185 186 204 214 225 224 218 217 210 219
228 180 192 174 188 175 212 162 194 201 232 307 204 258 274 335 285 264 270 314 278 271 275 284 264 256 57 43 55 18 136 185 198 179 195 196 221 231 258 223 226 216 206 213
219 319 160 195 163 172 169 206 215 107 177 265 204 183 251 216 214 282 287 321 3 19 23 36 54 92 84 56 52 51 68 56 50 120 208 214 220 233 244 240 229 229 210 211
157 212 328 137 110 122 177 138 248 348 213 231 283 201 257 258 237 226 275 289 300 337 83 67 56 57 53 47 37 32 42 43 31 43 44 4 279 258 248 258 246 242 235 227
166 274 182 187 176 176 190 189 162 195 199 259 352 239 251 232 267 255 255 269 288 254 118 101 81 65 56 48 38 34 36 34 22 23 17 15 11 347 301 273 261 254 239 241
159 258 134 193 151 145 203 209 163 100 0 11 231 289 287 280 290 308 258 277 295 146 145 120 99 77 56 49 43 38 35 30 23 12 5 5 354 351 334 323 313 299 290 272
209 193 204 205 135 222 168 161 187 171 226 246 257 263 238 304 288 308 313 234 144 142 134 137 108 84 61 48 40 37 32 33 11 1 359 351 337 341 334 327 325 318 307 304
175 160 44 133 202 192 177 212 198 172 179 199 272 258 222 237 274 283 295 267 178 165 157 155 107 67 60 52 39 33 26 19 9 353 342 344 350 350 346 345 339 334 322 315
181 163 188 212 196 207 223 212 199 183 234 254 239 254 205 250 260 202 327 58 162 172 160 145 103 84 59 50 37 37 27 22 358 333 332 350 3 357 0 353 346 343 336 328
167 205 118 328 356 13 199 221 221 226 97 224 218 260 338 205 220 251 166 160 162 171 158 155 159 130 82 49 30 25 20 14 351 348 353 7 11 359 355 352 347 344 339 333
172 168 211 218 192 148 201 204 218 213 233 247 239 261 252 327 230 225 177 193 187 185 184 195 190 151 75 60 35 24 14 8 356 4 8 15 7 353 351 352 348 344 341 338
178 215 202 243 259 222 225 209 210 208 230 227 248 246 260 206 203 211 203 190 200 216 214 209 201 182 181 105 40 32 18 355 354 24 19 5 352 348 354 352 348 341 341 337
199 233 168 253 238 228 257 240 217 219 230 238 250 257 256 222 193 226 232 215 217 226 221 197 186 186 170 67 28 13 1 0 4 12 16 355 356 357 353 350 346 344 342 340
185 197 180 243 225 142 235 232 230 238 234 222 232 242 265 249 217 216 228 219 225 230 203 188 184 175 162 128 83 24 4 10 18 15 358 0 355 348 344 340 348 347 343 338
188 215 220 244 88 240 234 234 226 232 238 235 242 256 256 251 237 221 215 221 231 208 194 177 156 149 147 126 84 44 30 31 5 351 347 347 349 336 327 324 329 332 333 326
217 227 254 251 238 256 300 245 196 196 243 238 232 243 253 245 104 262 224 216 219 204 169 142 135 131 125 108 67 58 57 41 0 4 348 340 335 324 322 318 316 312 314 319
212 216 227 233 241 255 242 243 194 105 249 249 219 242 258 129 208 249 177 181 149 127 125 130 127 121 119 98 91 116 102 54 17 353 339 329 326 323 315 310 310 299 293 296
185 205 233 243 244 254 250 115 123 187 230 247 187 226 244 205 225 249 112 79 102 109 119 112 113 112 101 77 83 89 78 30 355 346 334 329 325 318 306 311 315 309 306 296
175 174 206 227 242 256 147 7 198 209 216 205 208 238 213 218 137 132 129 133 127 126 124 124 121 110 91 80 93 112 82 11 350 336 320 312 309 315 318 316 313 320 316 317
221 208 220 193 213 217 174 216 241 203 200 209 192 194 173 152 163 140 132 129 126 124 118 107 121 120 98 71 55 45 21 359 340 324 311 307 309 325 322 320 321 314 328 324
252 161 220 64 247 222 219 228 246 201 221 163 220 197 155 164 150 138 132 127 119 112 111 110 117 113 99 52 54 42 16 349 314 302 309 309 326 328 325 320 310 314 324 325
209 146 221 254 259 342 258 224 256 236 211 186 145 215 163 130 140 146 133 127 122 115 101 89 93 91 83 38 32 24 12 339 327 316 316 321 329 323 320 308 307 316 304 300
180 210 204 250 251 214 245 194 166 190 228 219 174 121 51 142 137 111 98 113 119 118 109 94 81 78 42 16 347 347 338 357 352 344 341 329 331 324 316 318 318 311 307 314